Location: Igon
(43.1667°N, 0.2333°W)
Time: 09:22:35
(UTC+00:00)

Envisat - Pass Details

Date: 29 November 2020
Orbit: 764 x 766 km, 98.1° (Epoch: 23 January)

Event Time Altitude Azimuth Distance (km) Brightness Sun altitude
Rises 06:32:31 0° 7° (N) 3,244 6.1 -7.1°
Reaches altitude 10° 06:34:54 10° 1° (N) 2,313 5.3 -6.7°
Maximum altitude 06:39:45 46° 289° (WNW) 1,020 3.3 -5.9°
Drops below altitude 10° 06:44:34 10° 217° (SW) 2,297 5.4 -5.1°
Sets 06:46:56 0° 212° (SSW) 3,219 6.2 -4.7°
